Location: ?????
(38.3715°N, 23.0573°E)
Time: 19:55:50
(UTC+00:00)

Cosmos-2242 - Pass Details

Date: 03 August 2024
Orbit: 578 x 601 km, 82.5° (Epoch: 14 September)

Event Time Altitude Azimuth Distance (km) Brightness Sun altitude
Rises 19:10:04 0° 6° (N) 2,801 6.9 -16.7°
Reaches altitude 10° 19:12:35 10° 20° (NNE) 1,899 5.8 -17.1°
Maximum altitude 19:16:03 25° 76° (ENE) 1,193 4.2 -17.6°
Enters shadow 19:16:16 25° 81° (E) 1,197 4.2 -17.7°
